Airfield :
LOGIN :

Register | Disclaimer

   EN    FR    IT 

 










Legend :    VFR   Marginal VFR   IFR   Intensive IFR   Very Intensive IFR
Visi :
Ceiling :
>= 8 km
>= 3000ft
5 to 8 km
1000 to 3000 ft
1500m to 5 km
500 to 1000 ft
800 to 1500m
200 to 500 ft
< 800m
< 200 ft
Symbols :   Thunderstorms  Fog  Heavy snow  Heavy precipitations  Wind > 20 kt
SIGMETs :     Misc.  Thunderstorms  Icing  Turbulence  Mountain Waves  Volcanic Ashes







- Airport Elevation : 13 ft
- IATA code : GOA


LIMJ - Genoa Cristoforo Colombo

CURRENT METAR :
  • 161650Z 04004KT 320V090 9999 FEW020 BKN060 20/13 Q1018

EXPIRED METARs :
  • 161620Z 01005KT 320V050 9999 FEW020 BKN060 21/13 Q1018
  • 161550Z 36008KT 330V050 9999 FEW020 BKN060 21/13 Q1018
  • 161520Z 36007KT 300V030 9999 -DZ FEW020 BKN060 21/13 Q1018
  • 161450Z 01008G18KT 330V120 9999 -DZ FEW020 BKN060 21/13 Q1018
  • 161420Z 36008KT 330V060 9999 FEW020 BKN060 21/13 Q1018

Expired Forecast.
No reported NOTAMs for that airfield.



MET'MAP, your aeronautical weather chart ! - Copyright ORBIFLY December 2007 - Disclaimer

ORBIFLY MET'MAP TEAM :

Programming & Development : Alexandra Zaïnal
Concept & Development : Baudouin d'Aumeries
Co-Development & Prog : Marc-Olivier Méhu
Technical & hardware support : Manuel Goepfert

Contact : metmap@orbifly.com




SOURCES & CREDITS :

   NOAA